TimeCST,TemperatureF,Dew PointF,Humidity,Sea Level PressureIn,VisibilityMPH,Wind Direction,Wind SpeedMPH,Gust SpeedMPH,PrecipitationIn,Events,Conditions,WindDirDegrees,DateUTC
12:54 AM,-11.0,-15.0,83,30.19,10.0,Calm,Calm,-,N/A,,Clear,0,2013-02-17 06:54:00
1:54 AM,-11.9,-16.1,82,30.20,10.0,Calm,Calm,-,N/A,,Clear,0,2013-02-17 07:54:00
2:54 AM,-13.0,-18.0,78,30.20,10.0,Calm,Calm,-,N/A,,Clear,0,2013-02-17 08:54:00
3:54 AM,-15.0,-20.0,78,30.21,10.0,Calm,Calm,-,N/A,,Clear,0,2013-02-17 09:54:00
4:54 AM,-16.1,-20.9,79,30.20,10.0,Calm,Calm,-,N/A,,Clear,0,2013-02-17 10:54:00
5:54 AM,-16.1,-20.9,79,30.21,10.0,Calm,Calm,-,N/A,,Clear,0,2013-02-17 11:54:00
6:54 AM,-18.0,-23.1,78,30.22,5.0,Calm,Calm,-,N/A,,Haze,0,2013-02-17 12:54:00
7:54 AM,-14.1,-18.9,79,30.22,10.0,Calm,Calm,-,N/A,,Clear,0,2013-02-17 13:54:00
8:54 AM,-5.1,-9.0,83,30.22,10.0,Calm,Calm,-,N/A,,Clear,0,2013-02-17 14:54:00
9:54 AM,-0.0,-4.0,83,30.20,10.0,Calm,Calm,-,N/A,,Clear,0,2013-02-17 15:54:00
10:54 AM,10.9,1.0,64,30.19,10.0,Calm,Calm,-,N/A,,Clear,0,2013-02-17 16:54:00
11:54 AM,16.0,-0.0,49,30.16,10.0,SW,6.9,-,N/A,,Clear,230,2013-02-17 17:54:00
12:54 PM,18.0,1.0,48,30.13,10.0,South,4.6,-,N/A,,Clear,190,2013-02-17 18:54:00
1:54 PM,19.9,-0.0,42,30.10,10.0,SSE,4.6,-,N/A,,Clear,160,2013-02-17 19:54:00
2:54 PM,21.0,-0.0,40,30.08,10.0,SSE,8.1,-,N/A,,Clear,150,2013-02-17 20:54:00
3:54 PM,21.0,-0.0,40,30.07,10.0,South,9.2,-,N/A,,Clear,170,2013-02-17 21:54:00
4:54 PM,19.0,1.0,46,30.06,10.0,SSE,10.4,-,N/A,,Clear,160,2013-02-17 22:54:00
5:54 PM,17.1,-0.0,47,30.07,10.0,South,8.1,-,N/A,,Partly Cloudy,170,2013-02-17 23:54:00
6:54 PM,15.1,-0.0,51,30.06,10.0,SSE,9.2,-,N/A,,Mostly Cloudy,150,2013-02-18 00:54:00
7:54 PM,14.0,1.0,56,30.06,10.0,SSE,9.2,-,N/A,,Overcast,150,2013-02-18 01:54:00
8:54 PM,14.0,1.0,56,30.04,10.0,SSE,9.2,-,N/A,,Mostly Cloudy,160,2013-02-18 02:54:00
9:54 PM,14.0,1.0,56,30.01,10.0,SSE,6.9,-,N/A,,Overcast,160,2013-02-18 03:54:00
10:54 PM,14.0,1.9,59,29.99,10.0,SSE,6.9,-,N/A,,Overcast,160,2013-02-18 04:54:00
11:54 PM,15.1,3.0,59,29.97,10.0,SSE,6.9,-,N/A,,Overcast,150,2013-02-18 05:54:00